星链-30366 (STARLINK-30366 )

导读

STARLINK-30366是美国SpaceX星链星座的卫星,于2023年9月1日发射入轨,隶属于美国太空探索技术公司打造的星链互联网卫星星座。星链旨在为全球提供低延迟、高速的卫星互联网服务,该卫星承担着补充星座容量、扩展全球覆盖的任务,属于星链组网批量发射的卫星之一。

基本信息
目录编号:
57749
目录名称:
STARLINK-30366
国际标识:
2023-131T
轨道中心:
EARTH
卫星名称:
星链-30366
卫星全名:
星链-30366 (STARLINK-30366 )
卫星状态:
在轨 (已飞行1100 天)
发射日期:
2023-09-01 UTC
国别 :
美国 (US)
星等 :
--
轨道信息
数据来源 国际轨道数据
星历时间: 2026-09-05T08:20:54+0800
13小时前
查看轨道信息
半长轴: 6861.193km
偏心率: 0.0001395
轨道倾角: 42.999°
近地点辐角 291.423°
升交点赤经 243.836°
平近点角 68.647°
近地点: 482.098km
远地点: 484.014km
周期: 94.267分钟
每日圈数: 15.275777
详细信息
固有亮度:
5
最大亮度:
0.3
卫星平台:
Starlink v2.0 mini
覆盖范围:
全球
运营商:
太空探索技术公司
运营商所在国:
美国
制造商(研发单位):
太空探索技术公司
制造商所在国:
美国
使用方式:
暂无
卫星简介
星链(Starlink)计划是由太空探索技术公司(SpaceX)提出的一个巨型低轨卫星互联网星座项目,计划在2019年至2024年间在太空搭建由约1.2万颗卫星组成的“星链”网络,其中1584颗将部署在地球上空550千米处的近地轨道,并从2020年开始工作。该卫星仍在工作。
2D轨道图
3D轨道图
轨道高度分析图
轨道倾角分析图
轨道综合分析图
查看轨道综合分析图
交会数据列表
事件ID 空间交会对象 最接近时刻(TCA) 交会距离 交会风险概率(CRP) 交会风险指数(CRI) 操作
CDM_260906-063105-774906-435821
2026-09-06T
06:31:44+0000
1.088 km
极远距离
1.22206E-5 中风险 0.57
CDM_260907-025205-774906-388821
2026-09-07T
02:52:44+0000
2.758 km
极远距离
1.1747E-6 低风险 0.36